Weather History for Grants-Milan, NM

Change the Weather History Date:

Monday, January 21, 2013

  Actual Average Record
Temperature  
Mean Temperature 29 °F -  
Max Temperature 54 °F 45 °F 62 °F (1971)
Min Temperature 4 °F 14 °F -13 °F (1987)
Degree Days  
Heating Degree Days 36    
Moisture  
Dew Point 8 °F    
Average Humidity 51    
Maximum Humidity 84    
Minimum Humidity 16    
Precipitation  
Precipitation 0.00 in - - ()
Sea Level Pressure  
Sea Level Pressure 30.30 in    
Wind  
Wind Speed 7 mph (NW)    
Max Wind Speed 15 mph    
Max Gust Speed 20 mph    
Visibility 10 miles    
Events      
Averages and records for this station are not official NWS values.
T = Trace of Precipitation, MM = Missing Value Source: NWS Daily Summary

Daily Weather History Graph

Daily Weather History Graph

Search for Another Location

Airport:

Trip Planner

Search our weather history database for the weather conditions in past years. The results will help you decide how hot, cold, wet, or windy it might be!

Date:

Astronomy

Jan. 21, 2013 Rise Set
Actual Time 7:17 AM MST 5:29 PM MST
Civil Twilight 6:49 AM MST 5:56 PM MST
Nautical Twilight 6:19 AM MST 6:27 PM MST
Astronomical Twilight 5:48 AM MST 6:57 PM MST
Moon 1:12 PM MST 2:47 AM MST
Length of Visible Light 11h 06m
Length of Day
10h 11m
Waxing Gibbous, 75% of the Moon is Illuminated
Jan 21
Waxing Gibbous
Jan 26
Full
Feb 3
Last Quarter
Feb 10
New
Feb 17
First Quarter

Hourly Weather History & Observations

Time (MST) Temp. Windchill Dew Point Humidity Pressure Visibility Wind Dir Wind Speed Gust Speed Precip Events Conditions
12:15 AM 17.4 °F 7.1 °F 7.2 °F 64% 30.29 in 10.0 mi NW 8.1 mph - N/A   Clear
12:35 AM 15.4 °F 3.8 °F 6.3 °F 67% 30.29 in 10.0 mi WNW 9.2 mph - N/A   Clear
12:55 AM 16.9 °F 7.4 °F 7.7 °F 67% 30.29 in 10.0 mi West 6.9 mph - N/A   Clear
1:15 AM 16.9 °F 7.4 °F 7.7 °F 67% 30.30 in 10.0 mi WNW 6.9 mph - N/A   Clear
1:35 AM 15.1 °F 6.4 °F 7.5 °F 72% 30.30 in 10.0 mi WNW 5.8 mph - N/A   Clear
1:55 AM 16.3 °F 10.8 °F 7.5 °F 68% 30.30 in 10.0 mi NW 3.5 mph - N/A   Clear
2:15 AM 12.6 °F 6.5 °F 5.7 °F 74% 30.30 in 10.0 mi NW 3.5 mph - N/A   Clear
2:35 AM 12.9 °F 6.9 °F 6.1 °F 74% 30.30 in 10.0 mi NW 3.5 mph - N/A   Clear
2:55 AM 9.0 °F -2.2 °F 3.9 °F 80% 30.30 in 10.0 mi NW 6.9 mph - N/A   Clear
3:15 AM 9.9 °F 3.4 °F 3.4 °F 75% 30.30 in 10.0 mi NNW 3.5 mph - N/A   Clear
3:35 AM 11.3 °F 0.7 °F 5.7 °F 78% 30.30 in 10.0 mi NW 6.9 mph - N/A   Clear
3:55 AM 10.4 °F - 4.3 °F 76% 30.30 in 10.0 mi Calm Calm - N/A   Clear
4:15 AM 9.0 °F - 4.3 °F 81% 30.30 in 10.0 mi Calm Calm - N/A   Clear
4:35 AM 4.1 °F -5.1 °F -0.0 °F 83% 30.30 in 10.0 mi NW 4.6 mph - N/A   Clear
4:55 AM 5.9 °F -7.0 °F 0.7 °F 79% 30.30 in 10.0 mi NNW 8.1 mph - N/A   Clear
5:15 AM 5.4 °F -7.6 °F -0.2 °F 78% 30.30 in 10.0 mi NNW 8.1 mph - N/A   Clear
5:35 AM 4.8 °F -7.1 °F -0.9 °F 77% 30.30 in 10.0 mi NW 6.9 mph - N/A   Clear
5:55 AM 6.6 °F -6.1 °F 0.5 °F 76% 30.32 in 10.0 mi NW 8.1 mph - N/A   Clear
6:15 AM 7.9 °F -5.5 °F 1.9 °F 77% 30.32 in 10.0 mi NW 9.2 mph - N/A   Clear
6:35 AM 8.2 °F -5.1 °F 3.4 °F 81% 30.32 in 10.0 mi NW 9.2 mph - N/A   Clear
6:55 AM 5.5 °F -6.3 °F 1.8 °F 84% 30.32 in 10.0 mi NW 6.9 mph - N/A   Clear
7:15 AM 7.7 °F -5.8 °F 3.2 °F 82% 30.33 in 10.0 mi NW 9.2 mph - N/A   Clear
7:35 AM 8.2 °F -5.1 °F 3.0 °F 79% 30.33 in 10.0 mi WNW 9.2 mph - N/A   Clear
7:55 AM 10.9 °F 0.2 °F 4.6 °F 76% 30.33 in 10.0 mi WNW 6.9 mph - N/A   Clear
8:15 AM 12.9 °F 1.6 °F 5.2 °F 71% 30.34 in 10.0 mi WNW 8.1 mph - N/A   Clear
8:35 AM 16.3 °F 6.7 °F 6.3 °F 65% 30.34 in 10.0 mi NW 6.9 mph - N/A   Clear
8:55 AM 19.8 °F 9.9 °F 7.7 °F 60% 30.34 in 10.0 mi NW 8.1 mph - N/A   Clear
9:15 AM 22.3 °F 12.2 °F 7.7 °F 54% 30.35 in 10.0 mi NNW 9.2 mph - N/A   Clear
9:35 AM 24.6 °F 15.8 °F 8.1 °F 49% 30.36 in 10.0 mi NW 8.1 mph - N/A   Clear
9:55 AM 27.3 °F 19.1 °F 8.2 °F 45% 30.36 in 10.0 mi NW 8.1 mph - N/A   Clear
10:15 AM 29.5 °F 21.8 °F 8.6 °F 42% 30.36 in 10.0 mi NNW 8.1 mph - N/A   Clear
10:35 AM 32.5 °F 26.2 °F 9.3 °F 38% 30.36 in 10.0 mi North 6.9 mph - N/A   Clear
10:55 AM 36.5 °F 31.0 °F 10.2 °F 34% 30.35 in 10.0 mi NNW 6.9 mph - N/A   Clear
11:15 AM 40.3 °F 36.3 °F 9.9 °F 29% 30.33 in 10.0 mi NNW 5.8 mph - N/A   Clear
11:35 AM 42.8 °F 38.6 °F 9.5 °F 26% 30.33 in 10.0 mi North 6.9 mph - N/A   Clear
11:55 AM 45.0 °F 40.6 °F 9.1 °F 23% 30.32 in 10.0 mi NNW 8.1 mph - N/A   Clear
12:15 PM 47.3 °F - 9.7 °F 22% 30.30 in 10.0 mi North 11.5 mph - N/A   Clear
12:35 PM 49.8 °F - 8.1 °F 18% 30.29 in 10.0 mi NNW 13.8 mph 18.4 mph N/A   Clear
12:55 PM 50.2 °F - 7.2 °F 18% 30.29 in 10.0 mi North 13.8 mph 19.6 mph N/A   Clear
1:15 PM 51.1 °F - 7.3 °F 17% 30.28 in 10.0 mi North 11.5 mph - N/A   Clear
1:35 PM 52.5 °F - 7.3 °F 16% 30.26 in 10.0 mi NNW 10.4 mph - N/A   Clear
1:55 PM 53.6 °F - 7.3 °F 16% 30.26 in 10.0 mi North 11.5 mph - N/A   Clear
2:15 PM 54.3 °F - 8.2 °F 16% 30.26 in 10.0 mi North 8.1 mph 17.3 mph N/A   Clear
2:35 PM 54.7 °F - 8.8 °F 16% 30.25 in 10.0 mi North 10.4 mph - N/A   Clear
2:55 PM 54.7 °F - 8.8 °F 16% 30.25 in 10.0 mi NNW 11.5 mph 18.4 mph N/A   Clear
3:15 PM 54.5 °F - 9.5 °F 17% 30.25 in 10.0 mi North 13.8 mph - N/A   Clear
3:35 PM 54.1 °F - 11.3 °F 18% 30.25 in 10.0 mi NNW 12.7 mph - N/A   Clear
3:55 PM 53.6 °F - 12.6 °F 20% 30.25 in 10.0 mi NNW 12.7 mph - N/A   Clear
4:15 PM 52.9 °F - 12.9 °F 20% 30.25 in 10.0 mi North 15.0 mph - N/A   Clear
4:35 PM 51.3 °F - 14.0 °F 23% 30.25 in 10.0 mi North 12.7 mph - N/A   Clear
4:55 PM 49.5 °F - 14.0 °F 24% 30.26 in 10.0 mi North 12.7 mph - N/A   Clear
5:15 PM 46.9 °F - 13.1 °F 26% 30.26 in 10.0 mi North 8.1 mph - N/A   Clear
5:35 PM 43.7 °F 40.3 °F 10.6 °F 26% 30.26 in 10.0 mi North 5.8 mph - N/A   Clear
5:55 PM 38.7 °F 32.9 °F 9.3 °F 30% 30.26 in 10.0 mi NW 8.1 mph - N/A   Clear
6:15 PM 36.9 °F 29.6 °F 9.5 °F 32% 30.28 in 10.0 mi NW 10.4 mph - N/A   Clear
6:35 PM 35.2 °F 28.1 °F 9.5 °F 34% 30.28 in 10.0 mi WNW 9.2 mph - N/A   Clear
6:55 PM 35.8 °F 29.4 °F 10.2 °F 35% 30.28 in 10.0 mi WNW 8.1 mph - N/A   Clear
7:15 PM 33.1 °F 28.7 °F 10.6 °F 39% 30.29 in 10.0 mi WNW 4.6 mph - N/A   Clear
7:35 PM 28.8 °F - 9.1 °F 44% 30.29 in 10.0 mi Calm Calm - N/A   Clear
7:55 PM 27.9 °F - 11.8 °F 51% 30.30 in 10.0 mi Calm Calm - N/A   Clear
8:15 PM 28.2 °F - 10.8 °F 48% 30.30 in 10.0 mi Calm Calm - N/A   Clear
8:35 PM 26.8 °F 21.4 °F 10.2 °F 50% 30.30 in 10.0 mi WNW 4.6 mph - N/A   Clear
8:55 PM 27.0 °F - 10.6 °F 50% 30.30 in 10.0 mi Calm Calm - N/A   Clear
9:15 PM 24.8 °F - 9.9 °F 53% 30.30 in 10.0 mi Calm Calm - N/A   Clear
9:35 PM 21.2 °F - 8.1 °F 57% 30.32 in 10.0 mi Calm Calm - N/A   Clear
9:55 PM 21.2 °F - 9.5 °F 61% 30.32 in 10.0 mi Calm Calm - N/A   Clear
10:15 PM 18.3 °F - 6.8 °F 61% 30.32 in 10.0 mi Calm Calm - N/A   Clear
10:35 PM 18.9 °F 13.7 °F 7.7 °F 62% 30.33 in 10.0 mi NW 3.5 mph - N/A   Clear
10:55 PM 19.2 °F 12.5 °F 9.3 °F 65% 30.32 in 10.0 mi NNW 4.6 mph - N/A   Clear
11:15 PM 19.4 °F 11.5 °F 9.0 °F 64% 30.32 in 10.0 mi NW 5.8 mph - N/A   Clear
11:35 PM 17.4 °F 8.0 °F 7.5 °F 65% 30.32 in 10.0 mi NW 6.9 mph - N/A   Clear
11:55 PM 18.3 °F 13.1 °F 7.9 °F 64% 30.32 in 10.0 mi NNW 3.5 mph - N/A   Clear